Content
SEND FEEDBACK

Daily
Averages
Monthly
Summary
United States of America

VINTON, LOUISIANA


Home > North America > United States > Louisiana
Elevation: 20 feet     Latitude: 30 12N     Longitude: 093 35W

WEATHER
 
SELECT A DAY
Number of Records: 193,319;   Date Range: 11/22/06 - 9/29/14
 
SHARE

PRINT THIS DATA

[ ← Previous Day ]
WEATHER ALMANAC - MAY 4, 2013
[ Next Day → ]
[ °C ]   °F
Weather ElementAverageHighLow
Temperature60.7 °F75.2 °F (3:55 pm)42.8 °F (4:55 am)
Dewpoint45.6 °F57.2 °F (10:35 pm)33.8 °F (10:55 am)
Humidity63.9 %100 % (5:55 am)27 % (11:15 am)
Barometer29.97 in30.08 in (12:35 am)29.87 in (6:35 pm)
Wind Speed8.2 mph20.7 mph (2:55 pm)
Wind Gust28.8 mph (6:35 pm)
Weather ElementAverage
Visibility10 mi
Wind DirectionSSE (145.9 °)

Weather ElementTotal
Precipitation---
Heating Degree Days6 (Base 65)
Growing Degree Days9 (Base 50)
Averaged from 70 records on May 4, 2013
WEATHER CONDITIONS BREAKOUT
WIND DIRECTION BREAKOUT
WEATHER BY HOUR - MAY 4, 2013
[ °C ]   °F
Local TimeTemperatureDewpointHumidityBarometerVisibilityWind DirectionWind SpeedGust SpeedPrecipitationEventsConditions
12:35 AM46.4 °F42.8 °F87 %30.08 in10.0 miCalmClear
12:55 AM44.6 °F42.8 °F93 %30.07 in10.0 miCalmClear
1:15 AM46.4 °F42.8 °F87 %30.07 in10.0 miCalmClear
1:55 AM44.6 °F42.8 °F93 %30.04 in10.0 miCalmClear
2:15 AM44.6 °F42.8 °F93 %30.04 in10.0 miCalmClear
2:35 AM44.6 °F42.8 °F93 %30.04 in10.0 miCalmClear
2:55 AM44.6 °F42.8 °F93 %30.03 in10.0 miCalmClear
3:15 AM44.6 °F41.0 °F87 %30.03 in10.0 miCalmClear
3:35 AM44.6 °F41.0 °F87 %30.03 in10.0 miCalmClear
3:55 AM44.6 °F42.8 °F93 %30.02 in10.0 miCalmClear
4:15 AM44.6 °F42.8 °F93 %30.02 in10.0 miCalmClear
4:35 AM44.6 °F42.8 °F93 %30.02 in10.0 miCalmClear
4:55 AM42.8 °F41.0 °F93 %30.02 in10.0 miCalmClear
5:15 AM42.8 °F41.0 °F93 %30.02 in10.0 miCalmClear
5:35 AM42.8 °F41.0 °F93 %30.02 in10.0 miCalmClear
5:55 AM42.8 °F42.8 °F100 %30.03 in10.0 miCalmClear
6:15 AM42.8 °F42.8 °F100 %30.02 in10.0 miCalmClear
6:35 AM42.8 °F41.0 °F93 %30.03 in10.0 miCalmClear
6:55 AM42.8 °F41.0 °F93 %30.04 in10.0 miCalmClear
7:15 AM44.6 °F42.8 °F93 %30.04 in10.0 miCalmClear
7:35 AM46.4 °F46.4 °F100 %30.03 in10.0 miCalmClear
7:55 AM51.8 °F50.0 °F94 %30.03 in10.0 miCalmClear
8:15 AM53.6 °F50.0 °F88 %30.03 in10.0 miCalmClear
8:35 AM59.0 °F48.2 °F67 %30.04 in10.0 miCalmClear
8:55 AM60.8 °F44.6 °F55 %30.04 in10.0 miSW (230°)5.8 mphClear
9:15 AM62.6 °F41.0 °F45 %30.04 in10.0 miSW (230°)8.1 mphClear
9:35 AM64.4 °F39.2 °F40 %30.04 in10.0 miWSW (240°)8.1 mphClear
9:55 AM66.2 °F37.4 °F35 %30.04 in10.0 miSW (230°)6.9 mphClear
10:15 AM66.2 °F37.4 °F35 %30.04 in10.0 miSSW (210°)10.4 mphClear
10:35 AM68.0 °F37.4 °F33 %30.04 in10.0 miSW (230°)10.4 mphClear
10:55 AM68.0 °F33.8 °F28 %30.04 in10.0 miSW (230°)10.4 mphClear
11:15 AM69.8 °F33.8 °F27 %30.03 in10.0 miWSW (240°)12.7 mph17.3 mphClear
11:35 AM69.8 °F33.8 °F27 %30.03 in10.0 miSW (230°)10.4 mphClear
11:55 AM69.8 °F33.8 °F27 %30.02 in10.0 miSW (220°)11.5 mph19.6 mphClear
12:15 PM71.6 °F35.6 °F27 %30.01 in10.0 miWSW (250°)15.0 mph20.7 mphClear
12:35 PM71.6 °F35.6 °F27 %30.00 in10.0 miSW (230°)15.0 mph19.6 mphClear
12:55 PM71.6 °F39.2 °F31 %29.99 in10.0 miSSW (210°)17.3 mph21.9 mphClear
1:15 PM73.4 °F41.0 °F31 %29.98 in10.0 miSW (230°)13.8 mph27.6 mphClear
1:35 PM73.4 °F41.0 °F31 %29.97 in10.0 miSSW (210°)17.3 mph24.2 mphClear
1:55 PM73.4 °F41.0 °F31 %29.96 in10.0 miSW (220°)16.1 mph27.6 mphClear
2:15 PM73.4 °F42.8 °F33 %29.95 in10.0 miSSW (210°)15.0 mph27.6 mphClear
2:35 PM73.4 °F42.8 °F33 %29.94 in10.0 miSW (230°)17.3 mph25.3 mphClear
2:55 PM73.4 °F42.8 °F33 %29.92 in10.0 miSSW (210°)20.7 mph27.6 mphClear
3:15 PM73.4 °F42.8 °F33 %29.91 in10.0 miSW (220°)18.4 mph27.6 mphClear
3:35 PM73.4 °F44.6 °F36 %29.91 in10.0 miSSW (200°)18.4 mph25.3 mphClear
3:55 PM75.2 °F44.6 °F34 %29.90 in10.0 miSW (220°)16.1 mph23.0 mphClear
4:15 PM75.2 °F46.4 °F36 %29.89 in10.0 miSW (220°)16.1 mph20.7 mphClear
4:35 PM73.4 °F46.4 °F38 %29.88 in10.0 miSW (220°)18.4 mph25.3 mphClear
4:55 PM73.4 °F50.0 °F44 %29.88 in10.0 miSSW (210°)16.1 mph26.5 mphClear
5:15 PM73.4 °F50.0 °F44 %29.88 in10.0 miSSW (210°)18.4 mph25.3 mphClear
5:35 PM71.6 °F51.8 °F50 %29.88 in10.0 miSSW (200°)18.4 mph24.2 mphClear
5:55 PM71.6 °F51.8 °F50 %29.88 in10.0 miSSW (200°)15.0 mph25.3 mphClear
6:15 PM71.6 °F51.8 °F50 %29.88 in10.0 miSSW (200°)19.6 mph25.3 mphClear
6:35 PM69.8 °F53.6 °F56 %29.87 in10.0 miSSW (200°)19.6 mph28.8 mphClear
6:55 PM69.8 °F53.6 °F56 %29.87 in10.0 miSSW (200°)19.6 mph25.3 mphClear
7:15 PM68.0 °F53.6 °F60 %29.88 in10.0 miSSW (210°)16.1 mph23.0 mphClear
7:35 PM68.0 °F53.6 °F60 %29.88 in10.0 miSSW (210°)13.8 mph19.6 mphClear
7:55 PM66.2 °F53.6 °F64 %29.88 in10.0 miSSW (210°)12.7 mphClear
8:15 PM66.2 °F53.6 °F64 %29.89 in10.0 miSSW (210°)10.4 mphClear
8:35 PM64.4 °F55.4 °F73 %29.90 in10.0 miSSW (210°)10.4 mphClear
8:55 PM64.4 °F55.4 °F73 %29.90 in10.0 miSSW (210°)9.2 mphClear
9:15 PM64.4 °F55.4 °F73 %29.91 in10.0 miSW (220°)9.2 mphClear
9:35 PM64.4 °F55.4 °F73 %29.91 in10.0 miWSW (250°)5.8 mphClear
9:55 PM62.6 °F55.4 °F77 %29.93 in10.0 miWest (270°)3.5 mphClear
10:15 PM62.6 °F55.4 °F77 %29.93 in10.0 miSW (230°)3.5 mphClear
10:35 PM62.6 °F57.2 °F82 %29.93 in10.0 miSW (230°)4.6 mphClear
10:55 PM62.6 °F57.2 °F82 %29.93 in10.0 miSW (230°)5.8 mphClear
11:15 PM62.6 °F57.2 °F82 %29.93 in10.0 miSW (230°)4.6 mphClear
11:35 PM60.8 °F57.2 °F88 %29.93 in10.0 miWSW (250°)3.5 mphClear
11:55 PM60.8 °F57.2 °F88 %29.93 in10.0 miWSW (250°)6.9 mphClear
Hourly data recorded from KUXL, located miles away from Vinton, Louisiana







STORIES FROM OUR PARTNERS